Wind_Speed
36 35 34 33 32 31 31 29 28 28 26 25 24 22 21 20 19 20 21 22 22 25 30 26 17 15 14 13 13 13 11 11 10 13 13 16 22 11 8 17 14 13 16 12 11 11 9 9 10 9 9 4 2 1 1 2 1 2 3 2 2 2 3 4 5 5 3 2 4 3 2 7 4 1 1 2 6 5 4 5 3 5 6 2 4 16 30 31
38 36 34 33 32 30 30 29 28 28 26 25 24 22 21 20 19 19 19 20 21 21 24 24 21 16 14 13 14 15 12 11 9 11 20 20 17 14 12 18 17 14 14 14 15 16 10 6 9 8 6 2 2 1 1 1 1 2 3 3 4 3 3 5 5 4 3 2 3 2 1 4 5 4 2 2 1 3 5 4 5 5 6 6 11 22 29 29
40 37 34 33 32 30 29 28 27 27 26 25 24 23 22 20 19 19 18 19 20 21 21 20 22 19 15 13 12 14 11 7 5 10 24 23 17 18 16 17 21 18 14 13 16 18 13 11 12 8 4 2 0 2 2 1 1 2 4 3 6 4 3 3 4 4 3 3 3 1 2 2 1 2 2 4 5 4 5 3 1 1 2 4 9 19 25 25
41 38 35 33 32 31 29 28 26 25 24 23 23 23 22 21 20 19 18 19 18 20 21 20 21 20 18 16 13 12 10 3 3 12 25 25 20 20 18 17 21 21 16 12 11 12 11 11 10 5 4 2 0 2 2 3 2 2 3 5 6 4 2 3 3 3 2 4 4 2 1 2 2 0 2 6 6 3 6 6 7 8 9 9 8 15 21 22
42 40 37 35 33 31 29 27 26 24 23 22 22 22 22 22 20 19 18 18 18 19 21 21 19 19 19 18 16 13 8 1 4 10 19 23 23 21 20 19 20 21 18 12 9 9 8 7 5 4 4 2 1 2 3 3 2 2 3 4 4 4 3 4 3 1 2 3 3 3 3 2 1 1 3 7 6 5 6 8 10 11 13 14 13 16 18 19
42 42 40 37 34 32 29 27 26 25 24 22 22 21 21 21 20 20 19 17 18 18 19 21 20 18 18 18 18 16 8 3 3 5 4 14 25 23 22 21 19 18 16 13 11 10 6 5 4 2 3 2 4 3 3 2 2 2 3 2 4 3 4 3 2 1 3 5 3 3 3 0 2 2 3 6 6 7 6 7 9 12 17 21 19 17 15 15
42 42 41 38 36 33 31 29 27 26 25 23 22 21 20 20 20 20 19 18 18 18 19 20 21 20 20 20 18 12 6 5 7 4 7 7 22 26 25 23 18 17 17 15 13 9 5 5 4 4 4 2 4 5 3 1 3 2 3 3 4 3 4 4 3 1 4 4 2 1 1 0 2 2 1 3 7 8 6 6 8 14 20 20 17 16 16 18
42 41 41 39 37 35 32 30 28 27 27 25 23 22 20 19 20 20 19 19 17 18 18 19 22 22 23 22 13 4 3 13 20 13 11 8 18 27 28 25 19 17 18 18 16 12 8 8 6 4 4 2 4 5 3 3 2 3 5 4 3 2 3 3 2 1 1 1 2 1 1 4 6 2 0 5 9 7 7 5 6 12 15 15 14 15 15 16
42 41 41 40 38 35 33 31 29 29 27 27 25 23 21 19 20 20 19 19 18 19 18 20 23 23 25 19 9 3 6 18 27 17 11 5 18 29 32 27 22 20 17 18 18 15 9 7 6 4 4 3 4 6 5 5 3 5 5 3 3 2 3 3 2 1 2 2 0 1 5 7 5 2 2 8 10 7 2 3 5 10 12 12 13 14 15 14
43 41 40 39 38 36 34 33 32 30 28 27 26 24 22 20 20 20 19 19 18 19 18 21 23 24 25 16 7 6 6 11 23 20 9 1 17 30 34 30 25 23 18 15 17 16 9 7 8 5 4 2 4 5 5 7 4 5 6 4 4 3 3 2 2 3 2 2 3 3 7 8 4 2 3 7 8 4 3 4 5 9 12 12 12 12 16 16
44 42 40 39 38 37 36 35 33 32 29 27 25 24 24 22 20 19 19 18 19 18 19 21 23 26 23 14 9 8 2 5 17 22 8 0 16 27 31 31 26 24 20 14 15 16 9 11 14 7 2 3 4 4 4 5 3 5 7 3 3 1 2 1 2 4 1 2 4 5 6 7 3 2 5 7 6 3 5 6 6 9 10 12 12 11 13 16
44 42 41 39 39 39 37 35 34 32 30 28 26 24 23 23 21 19 18 18 18 18 19 22 24 26 19 8 9 5 3 8 15 20 11 5 15 21 23 27 26 25 23 16 16 18 11 12 17 8 2 3 5 2 3 4 3 5 7 5 3 2 3 4 3 3 2 2 3 4 5 10 7 6 7 8 7 3 5 6 8 9 9 10 11 9 10 15
44 42 41 40 39 39 37 35 34 32 31 29 27 24 22 23 21 20 18 18 18 18 18 21 25 25 15 4 6 5 4 11 18 19 14 11 15 17 17 21 23 23 23 17 17 18 11 10 15 8 1 4 4 2 1 1 3 4 5 4 3 1 4 5 3 2 3 3 1 4 5 10 8 8 9 9 6 4 4 7 8 8 8 8 8 8 9 12
45 43 41 40 39 38 36 34 33 32 31 30 28 25 22 21 21 20 18 17 18 17 15 21 25 20 9 2 3 8 8 11 17 18 16 15 16 14 14 17 20 19 15 11 13 13 9 10 12 7 1 3 3 1 2 3 1 3 2 1 3 3 3 4 4 5 4 4 4 6 5 11 6 6 9 7 6 6 7 8 8 8 7 7 7 8 9 11
45 43 42 40 39 37 35 34 33 32 31 30 28 26 22 20 20 19 18 17 16 16 15 18 21 13 3 3 2 9 13 14 20 21 19 19 19 16 13 13 14 14 8 5 11 13 9 11 11 6 0 1 3 3 3 1 2 2 3 2 3 4 2 4 4 8 8 4 5 7 5 10 6 7 9 7 6 7 7 8 8 8 8 7 7 8 8 10
44 43 42 40 39 37 35 33 32 32 30 29 28 25 22 19 19 18 17 16 14 16 15 15 17 10 1 3 4 11 12 13 21 24 23 25 23 21 17 11 7 9 6 4 11 14 7 5 4 2 2 2 4 5 4 2 1 3 4 3 4 4 2 4 4 8 11 5 3 7 6 7 4 5 6 4 5 6 6 8 8 9 9 8 7 8 8 8
43 42 40 39 38 36 34 32 30 31 29 28 27 25 22 18 17 17 15 15 14 14 14 13 14 6 1 2 5 8 10 12 21 25 26 26 25 25 23 11 4 5 7 7 10 10 4 0 1 1 2 2 3 5 4 4 6 4 3 2 2 4 4 3 4 5 8 6 6 8 9 13 8 4 5 2 4 6 6 8 8 9 8 8 8 8 8 9
42 41 40 38 36 34 33 31 29 29 28 27 26 24 21 18 17 15 13 14 13 9 7 10 13 5 4 7 6 8 14 19 23 26 25 22 24 27 25 15 4 4 7 5 5 5 2 1 1 3 2 3 5 6 7 6 7 6 5 3 1 3 5 6 4 4 6 7 8 6 8 19 15 7 9 6 3 6 7 8 8 8 8 7 7 7 8 10
41 40 40 38 35 34 32 31 29 27 27 26 25 23 19 15 13 11 13 14 9 5 4 7 11 6 3 7 8 9 18 23 22 23 23 20 21 23 22 19 10 4 3 3 5 5 3 1 2 4 6 8 9 9 7 4 7 9 7 6 4 4 5 6 6 5 5 6 8 8 10 18 15 9 11 10 4 6 8 8 7 7 6 6 6 7 9 10
40 39 40 38 35 34 31 31 28 26 27 27 28 22 14 11 8 5 8 8 7 5 4 10 14 7 2 3 9 11 15 18 14 16 23 22 23 21 13 12 9 3 2 4 5 5 4 4 5 8 11 11 11 10 6 4 7 10 8 7 6 5 4 4 5 6 4 5 7 10 11 16 15 11 12 9 5 7 9 8 8 8 7 6 7 9 11 11
39 38 39 38 36 35 32 31 28 27 28 30 31 16 6 11 7 6 8 5 11 8 2 11 17 6 4 2 12 15 10 7 5 11 22 23 25 20 6 7 10 6 6 6 3 2 3 7 11 14 13 12 12 12 9 6 6 8 7 6 5 5 5 5 4 5 3 4 6 7 9 15 17 12 9 5 5 9 11 9 10 11 10 8 9 11 11 10
37 37 39 38 36 34 32 30 28 28 28 30 28 8 6 14 4 7 13 3 9 8 3 6 14 4 4 2 8 15 10 4 4 8 19 21 17 13 8 9 11 10 11 7 3 3 4 9 17 16 11 10 11 12 12 9 6 6 5 5 5 4 3 5 4 3 3 4 5 5 6 12 16 13 9 7 9 11 10 10 12 12 11 11 11 11 10 9
37 36 38 37 37 35 31 31 28 29 29 29 25 11 13 18 6 11 15 4 3 7 1 3 8 6 2 2 4 9 8 9 8 7 18 22 11 9 11 12 13 12 12 11 8 7 7 12 17 12 6 9 10 10 12 9 6 5 4 5 5 3 3 4 4 2 3 3 2 3 4 7 11 10 9 10 11 11 11 12 13 11 12 14 13 11 10 12
38 36 37 37 38 35 32 32 29 29 31 30 29 19 16 18 13 17 12 4 2 5 4 4 2 4 4 2 6 7 4 6 5 8 19 21 10 8 11 13 15 12 11 16 14 11 11 8 8 9 7 10 10 9 11 8 6 5 5 6 5 5 7 5 3 1 1 2 0 1 4 6 8 10 12 9 7 10 13 11 12 12 13 13 12 12 13 14
39 38 38 38 37 36 35 31 28 31 31 26 26 19 17 20 17 15 8 3 1 1 5 6 2 4 7 5 7 6 2 2 2 9 19 21 15 10 8 8 10 12 16 20 15 13 12 4 11 13 10 11 10 10 13 11 7 6 8 9 7 8 8 5 3 3 3 4 3 1 3 6 6 9 12 7 3 8 9 8 13 14 13 12 12 14 14 14
40 37 38 38 37 39 32 20 24 33 25 18 23 21 19 23 19 12 6 4 2 1 6 8 2 8 12 7 6 5 2 3 1 9 17 21 18 9 7 7 4 11 18 16 11 7 6 7 12 13 12 13 12 10 13 13 8 7 9 11 9 9 7 5 5 4 1 4 3 2 5 6 5 5 9 6 5 9 8 7 13 13 11 12 12 14 14 13
39 37 39 37 37 40 26 12 24 30 16 14 26 25 20 24 21 10 4 1 3 3 6 6 4 10 13 10 12 8 3 4 3 7 14 19 14 2 5 11 6 9 11 8 7 6 7 12 11 12 13 12 10 9 13 14 9 5 7 13 11 8 7 5 6 4 3 2 3 1 3 5 6 6 8 7 7 10 10 11 13 11 11 13 13 14 14 14
38 37 38 35 38 41 25 17 26 23 13 18 27 26 22 27 22 7 3 4 3 5 5 4 4 8 9 11 16 8 2 5 5 7 15 21 14 2 5 14 12 12 13 11 11 9 11 16 16 18 16 11 13 15 14 14 9 4 6 12 10 7 5 4 5 3 1 2 4 4 3 3 7 5 5 5 6 9 12 13 13 12 13 14 14 15 14 14
39 39 38 37 38 37 25 23 27 20 16 23 29 29 28 27 17 5 2 5 1 3 3 6 5 5 8 9 13 9 1 3 2 4 12 17 11 2 3 11 13 14 16 16 15 9 7 13 17 19 15 13 16 14 14 16 9 3 7 8 4 4 4 4 4 2 2 2 7 7 5 3 7 5 4 3 4 8 10 10 11 13 13 12 12 14 13 12
39 39 38 38 35 32 25 23 27 23 22 28 33 34 29 20 10 3 7 5 2 1 1 6 9 9 13 11 9 13 9 3 2 3 7 9 8 4 2 3 7 9 12 15 14 6 1 3 8 11 11 11 9 8 13 17 10 5 6 7 6 3 4 3 2 3 1 6 9 9 10 6 6 4 5 5 5 8 9 9 10 11 11 11 11 11 11 10
39 38 39 39 36 34 24 15 23 29 29 36 40 32 20 9 4 7 8 1 3 4 3 6 11 14 18 15 9 13 11 4 4 6 6 5 7 6 1 1 4 5 9 12 11 7 1 3 4 6 6 5 7 5 5 8 10 8 6 6 4 1 2 1 1 2 4 8 6 10 12 9 8 6 3 5 6 6 8 9 11 11 11 10 10 9 9 9
38 38 41 40 37 37 25 17 28 35 36 43 36 20 10 4 5 7 5 3 2 5 7 8 11 13 18 17 12 13 13 7 5 8 9 7 6 8 8 7 7 6 7 8 10 9 6 5 6 5 3 7 11 7 1 2 5 5 5 7 5 3 2 4 3 4 7 6 2 6 10 7 10 8 4 9 11 10 11 11 11 11 9 9 8 8 8 7
39 39 41 39 38 37 28 25 36 39 41 42 25 8 6 7 7 9 7 4 2 4 8 11 13 15 17 16 12 13 13 9 8 8 10 11 9 11 15 14 12 10 6 8 11 9 6 6 8 6 2 6 11 9 5 3 5 7 8 9 8 6 5 7 6 5 6 4 1 3 4 3 6 5 7 13 16 14 11 11 10 9 9 10 9 8 7 6
39 40 40 38 38 34 28 30 40 45 44 33 14 6 8 7 7 12 12 5 2 2 7 13 15 15 16 15 12 14 12 9 11 10 9 11 9 11 15 15 16 11 3 6 8 9 11 8 11 13 8 11 15 15 15 13 11 13 10 9 9 7 5 7 7 7 6 1 1 3 3 4 4 3 7 11 12 11 9 9 9 8 9 9 9 8 7 7
38 39 38 35 33 31 32 35 44 50 38 18 8 8 9 7 7 12 11 5 2 2 5 10 14 13 12 11 11 14 12 8 12 11 8 11 10 10 13 13 17 13 5 6 4 7 13 8 10 17 13 17 21 16 14 12 9 8 5 6 10 6 4 3 3 6 4 1 2 4 3 4 5 6 8 7 9 9 10 10 8 9 9 7 8 9 8 8
37 35 32 31 31 33 38 41 47 49 30 11 8 8 8 8 7 8 10 7 5 6 8 9 12 11 9 8 7 12 11 5 11 11 6 9 10 12 13 9 14 17 10 8 3 5 9 6 10 16 10 19 24 16 15 13 8 5 5 8 7 4 5 4 1 0 4 2 4 3 6 6 3 8 11 10 12 13 11 8 7 9 8 6 8 8 8 9
33 29 23 24 32 37 41 45 48 40 22 10 10 9 8 9 6 5 8 9 6 9 10 8 8 9 10 9 8 13 12 4 8 10 5 7 7 9 12 7 9 16 14 10 4 2 5 3 9 16 14 20 21 16 17 11 5 6 9 8 4 3 2 4 1 1 3 3 4 5 12 8 1 6 6 7 14 17 13 7 6 9 7 6 8 8 9 9
27 22 15 19 34 40 42 48 45 28 11 8 11 10 9 8 4 4 6 9 9 9 10 7 6 8 11 10 9 14 15 9 10 11 7 8 6 9 13 6 4 13 15 12 4 2 3 1 4 12 14 13 10 11 12 4 2 2 7 8 6 3 4 4 4 3 3 5 3 5 11 7 7 9 4 6 13 16 16 10 7 10 10 8 8 9 10 8
20 13 5 16 35 39 43 47 36 18 8 8 12 9 6 5 4 3 5 9 9 9 11 9 5 6 9 11 11 13 16 14 12 11 9 9 6 10 17 10 5 10 14 14 7 2 3 3 3 5 7 8 7 8 10 6 1 2 2 6 4 3 5 6 6 4 5 6 5 4 5 5 8 9 9 11 11 10 11 9 8 11 10 9 9 9 9 7
12 6 2 19 38 41 46 38 19 11 7 7 11 7 4 5 4 3 4 6 6 4 8 10 7 7 9 10 11 11 13 14 13 10 9 10 9 10 15 14 10 10 13 14 9 2 1 3 3 1 2 7 8 8 14 15 9 5 7 9 8 5 2 3 6 4 3 5 5 4 6 7 6 5 11 15 12 11 13 11 10 10 9 9 9 9 8 7
5 4 1 22 43 44 39 23 7 8 7 7 10 5 3 5 6 4 2 3 3 0 3 6 6 7 10 10 10 9 9 11 12 9 6 10 11 8 9 14 13 12 13 13 11 7 3 2 3 2 3 9 10 12 18 21 18 14 12 13 14 11 6 5 7 3 2 4 4 3 8 10 5 6 10 14 14 16 16 12 9 8 8 10 9 9 8 7
4 5 2 22 48 44 24 8 4 6 6 7 8 5 5 6 6 7 4 4 3 0 2 3 2 4 8 9 10 11 9 9 11 10 7 10 13 9 9 14 14 13 12 10 11 9 4 3 5 3 4 5 5 6 8 14 17 10 4 8 12 10 8 8 9 5 3 5 4 3 6 8 4 9 11 12 13 13 12 8 7 8 9 9 8 8 8 7
3 5 4 16 40 38 15 3 4 5 4 5 7 6 7 6 5 6 5 3 2 0 2 3 1 2 3 4 9 12 11 9 12 13 10 10 12 9 11 16 14 11 10 8 9 7 3 3 6 3 2 2 4 4 4 1 9 6 1 4 7 9 11 8 6 5 5 8 6 3 7 8 3 4 7 10 10 9 7 7 8 9 7 7 8 8 7 7
3 4 5 7 22 24 9 3 6 7 4 4 9 8 4 2 4 6 6 5 3 2 3 3 2 2 2 1 5 12 14 9 10 13 10 8 9 6 10 19 17 12 9 7 8 8 5 4 5 3 2 0 2 2 1 0 5 6 5 7 7 11 11 4 1 2 4 10 11 7 10 11 3 1 3 6 8 7 6 6 8 8 7 7 7 6 6 6
4 4 2 4 7 7 3 2 5 9 8 7 11 11 6 3 3 4 5 5 3 4 4 3 3 2 1 1 2 10 13 6 5 10 7 4 5 3 5 16 19 14 13 12 11 9 6 5 5 6 8 8 7 8 7 8 7 6 9 13 14 18 18 10 6 7 8 13 13 10 12 9 1 2 2 3 6 8 7 6 6 7 7 7 6 6 6 6
3 3 2 3 3 2 1 0 2 7 9 9 9 8 8 7 3 3 5 3 2 3 3 3 5 4 1 3 3 8 11 3 2 7 8 6 4 2 2 10 15 14 13 16 17 9 3 5 7 8 9 8 7 5 4 8 13 13 17 22 22 23 24 18 11 10 12 13 11 12 16 11 2 3 5 4 6 8 6 5 6 7 8 7 7 7 6 5
2 2 2 3 2 1 2 2 2 4 6 7 5 4 8 9 6 4 4 1 4 4 3 2 5 5 4 5 4 5 8 4 2 6 10 8 3 1 1 4 10 13 9 12 15 9 3 6 11 13 15 10 1 1 1 7 16 22 24 25 24 22 22 18 14 15 14 10 9 13 17 16 10 5 5 6 6 6 7 9 10 10 9 8 6 6 6 6
2 2 1 1 2 3 3 4 5 6 5 3 2 4 9 10 7 5 3 2 3 3 2 2 2 5 8 7 4 3 5 4 3 5 7 7 4 2 2 1 5 9 9 8 9 6 4 7 11 14 18 15 4 1 2 6 12 19 23 26 26 23 23 22 22 21 17 12 14 17 16 17 14 7 8 11 9 9 10 9 7 5 4 5 6 6 7 8
2 2 1 2 2 3 4 4 6 8 7 4 3 4 8 9 7 4 2 4 4 3 1 3 5 6 7 7 5 3 4 3 2 4 5 7 7 5 3 3 3 5 9 8 6 4 4 6 9 11 15 17 11 5 4 6 10 14 16 19 22 23 25 27 26 26 22 16 17 17 13 15 16 14 16 15 8 6 5 3 2 3 3 5 7 8 9 9
2 2 0 2 3 3 4 4 6 8 5 3 3 3 5 8 7 3 2 4 6 3 1 4 6 6 5 6 4 4 6 4 3 4 4 6 8 5 3 4 3 5 8 7 4 4 5 5 9 9 8 12 14 11 7 7 10 14 16 16 17 19 21 23 22 22 19 16 18 19 14 16 17 14 15 12 6 4 4 4 6 7 6 7 8 9 10 9
0 2 1 4 4 3 3 2 4 6 3 2 3 3 4 7 7 4 2 2 5 6 4 6 9 6 4 5 4 5 8 6 6 7 5 5 4 2 2 3 3 5 7 6 3 4 5 3 6 7 4 7 12 14 13 10 10 13 16 16 17 17 18 19 20 20 19 19 23 20 16 18 14 7 8 8 9 12 13 10 9 8 9 10 10 10 10 10
3 2 2 5 3 2 1 2 3 4 3 1 2 4 4 6 6 6 3 2 1 5 7 10 10 6 5 7 9 8 8 7 6 7 6 5 2 2 3 3 4 3 3 2 1 2 4 4 4 5 5 7 9 14 15 11 8 10 13 18 21 22 22 21 21 22 22 21 19 18 19 17 7 7 8 9 12 17 19 15 13 11 10 10 10 10 10 11
Wind_Direction
202 202 203 202 200 200 199 201 202 201 200 198 197 197 197 193 191 191 190 198 202 203 209 211 208 208 202 199 203 199 197 192 185 186 198 224 215 201 183 186 183 186 192 209 220 200 177 175 174 153 144 134 26 120 84 30 76 77 103 121 241 211 189 202 192 192 177 200 255 277 174 137 143 217 184 38 52 75 63 28 356 4 20 82 155 154 157 161
200 200 202 202 199 198 195 196 199 199 198 196 196 196 196 194 192 191 189 191 194 196 199 201 203 203 199 200 205 197 194 197 193 210 221 230 227 211 192 184 189 195 197 208 205 184 166 169 169 145 125 120 356 97 124 333 96 128 131 142 223 213 207 204 184 191 170 183 237 298 335 132 156 179 138 130 130 110 98 21 2 31 24 59 118 141 152 160
198 198 198 200 199 198 195 192 195 197 197 196 195 194 194 194 192 191 189 188 190 192 190 190 195 201 202 203 211 196 180 186 198 240 232 227 231 221 205 194 200 206 200 199 198 185 174 171 165 143 107 110 69 110 130 190 177 167 132 164 224 221 232 222 178 185 191 176 158 290 338 68 180 185 145 158 154 156 160 167 91 114 184 126 131 144 152 162
198 196 194 196 197 198 195 191 192 193 195 197 197 195 194 195 193 190 188 189 189 190 192 191 190 194 199 200 208 186 154 161 221 238 233 225 228 222 208 199 201 203 195 187 186 181 174 163 156 126 100 128 8 87 156 211 191 160 148 181 213 195 200 234 196 187 175 152 150 188 91 81 267 198 142 146 136 214 224 196 185 185 179 164 161 158 159 166
197 195 193 193 194 195 194 192 192 193 195 197 198 198 195 195 194 191 186 187 189 188 190 190 187 186 186 191 194 170 142 221 212 223 237 229 226 220 203 197 195 195 194 194 183 164 162 143 118 74 88 140 122 92 208 226 142 165 214 187 193 169 177 242 217 167 102 110 98 123 153 168 278 9 169 155 155 224 227 206 193 177 169 169 171 169 169 172
196 194 193 193 193 194 195 194 194 195 197 197 198 197 195 196 194 191 187 185 187 188 188 186 185 181 180 184 179 164 159 243 169 140 274 235 222 216 199 195 195 197 197 195 176 153 145 113 101 112 112 144 172 180 219 218 101 182 249 208 209 190 166 212 201 144 81 89 88 149 189 360 30 306 217 170 197 226 223 202 181 172 174 172 168 168 175 180
195 193 192 194 194 195 196 196 196 196 198 197 197 196 194 194 194 192 187 185 186 188 190 184 181 180 180 175 168 166 167 249 227 171 344 270 216 210 197 195 198 201 198 181 161 148 137 125 138 148 135 140 182 206 214 112 70 142 231 246 223 212 177 185 176 129 86 113 208 175 91 32 173 268 257 199 238 244 248 227 175 173 173 166 165 173 183 188
195 193 192 192 193 195 196 197 197 195 198 198 197 196 193 192 194 194 189 187 186 187 190 185 181 181 178 166 155 160 194 234 228 227 302 284 209 202 193 195 201 198 192 179 166 157 145 151 167 141 148 209 187 197 181 106 45 191 219 243 205 213 217 208 156 63 10 251 277 16 304 244 205 182 220 245 255 254 243 229 165 161 162 164 175 184 187 191
194 193 191 191 192 193 194 196 197 196 197 197 198 197 194 192 191 194 194 191 187 187 190 185 184 183 180 167 141 176 219 226 224 234 297 273 196 195 189 192 200 197 186 178 174 163 152 165 180 152 160 212 185 186 179 161 227 216 198 211 189 205 224 208 174 220 308 256 281 338 277 267 234 182 264 247 245 254 222 144 139 150 162 177 184 188 189 191
193 193 191 190 190 191 192 193 196 196 196 196 198 198 196 192 190 192 194 195 189 187 190 188 186 183 180 168 155 203 221 217 220 233 295 333 186 189 187 190 195 194 182 170 171 163 158 172 167 143 132 168 186 176 175 182 209 195 174 199 215 205 211 167 176 244 303 255 212 220 262 276 275 220 252 260 248 234 134 134 151 160 173 187 190 193 193 194
190 190 190 189 188 188 189 191 194 194 195 195 195 197 197 194 192 191 192 196 190 186 193 190 186 184 177 168 184 209 190 182 213 225 256 69 186 187 185 189 192 191 179 165 173 169 162 167 158 137 118 163 168 154 186 196 169 162 160 185 257 295 274 192 189 240 287 269 201 173 260 281 284 210 217 254 258 165 151 172 176 180 187 192 195 195 194 199
188 188 188 187 186 186 187 189 190 191 193 194 194 194 195 195 194 191 189 192 190 189 194 192 191 187 177 180 206 199 132 168 189 203 208 165 184 192 190 192 193 192 184 172 180 180 170 170 161 151 199 155 128 133 219 205 124 150 158 166 237 310 283 232 206 223 170 217 199 124 297 277 243 233 214 228 243 170 164 193 190 199 202 198 198 195 197 203
187 187 186 185 185 185 185 187 188 190 191 192 193 192 192 193 194 192 189 189 191 193 192 192 195 188 176 198 208 176 149 169 173 180 176 155 174 195 202 201 196 195 192 182 182 181 176 180 163 150 170 119 126 200 272 56 109 153 167 157 181 254 263 230 195 189 174 208 193 92 284 264 240 240 229 222 229 181 195 217 207 209 209 205 200 195 204 203
187 186 186 185 184 183 184 186 187 188 189 189 190 191 190 190 191 192 189 189 190 192 192 192 191 180 174 229 171 184 192 174 175 177 169 158 163 185 208 207 199 198 195 186 182 176 166 161 143 120 68 95 123 180 34 15 54 134 156 157 166 200 224 220 192 167 192 222 134 108 251 259 241 236 242 233 210 187 215 230 218 217 214 211 205 200 208 205
187 186 186 185 184 182 183 185 186 187 188 187 186 188 189 186 188 188 188 190 188 191 189 185 181 162 160 268 162 181 184 172 181 187 189 181 165 174 205 206 198 196 187 174 179 172 157 141 128 113 131 110 111 114 96 33 328 145 179 194 181 200 222 265 224 174 199 231 130 129 242 267 249 229 242 242 216 194 213 232 223 223 220 213 213 208 213 213
187 186 186 186 184 183 182 183 184 185 186 184 182 186 186 183 184 183 187 189 187 191 187 175 172 157 146 236 168 170 169 171 184 186 193 195 180 172 181 187 207 196 156 129 161 163 160 131 113 121 119 128 137 126 118 120 264 230 198 180 177 192 218 290 278 207 206 212 168 186 232 273 266 230 239 244 221 202 215 235 224 221 222 215 214 212 214 218
187 187 186 186 185 183 181 181 181 181 182 181 178 180 183 180 179 180 184 190 188 186 186 172 166 166 320 178 159 172 172 176 183 180 181 189 186 172 163 165 232 196 127 122 154 158 179 19 66 126 98 129 151 129 143 188 207 209 184 165 173 184 194 237 286 258 212 204 225 215 235 254 253 244 256 258 178 190 222 239 230 222 223 219 216 216 215 215
187 187 187 187 186 184 182 180 177 176 177 175 173 176 178 173 170 169 169 180 177 158 162 160 154 164 258 211 186 167 175 181 182 180 176 176 179 170 155 140 124 141 123 126 171 172 203 341 98 144 135 165 167 162 180 196 188 178 172 167 152 186 204 215 239 255 192 200 230 209 236 252 252 253 264 273 179 183 226 235 237 233 227 228 224 223 221 217
187 188 188 188 186 184 183 181 176 172 171 170 167 165 163 153 152 159 156 160 161 140 145 160 165 177 229 205 185 164 179 183 179 177 172 164 159 152 140 128 110 110 149 177 198 187 170 91 135 173 183 189 184 178 177 154 153 164 176 182 177 188 221 226 232 248 189 190 228 209 227 251 254 253 257 267 230 207 237 241 246 248 238 235 228 229 228 224
187 187 187 187 186 185 184 182 178 171 167 163 153 148 148 145 141 166 161 161 190 194 156 170 184 191 22 142 158 160 175 175 172 171 169 161 143 131 122 123 114 96 199 214 202 189 175 174 197 203 197 191 182 173 165 134 152 166 175 190 191 192 234 238 234 257 204 189 233 217 228 252 256 250 248 258 252 237 243 241 246 249 247 239 229 231 228 226
186 185 185 186 187 188 186 183 178 171 167 161 153 145 156 165 159 177 166 183 216 209 133 180 187 180 18 99 146 144 149 160 178 167 164 160 144 136 133 135 139 164 207 223 212 176 195 197 208 211 198 185 179 175 173 171 168 173 177 187 197 199 233 245 235 251 187 180 249 232 231 253 256 252 254 259 254 247 238 234 244 244 244 243 234 234 230 230
185 185 184 184 185 186 185 182 178 171 167 163 162 161 188 176 170 166 159 155 218 212 5 182 186 175 38 57 144 142 137 153 197 174 159 158 154 153 159 155 161 181 192 207 221 178 199 219 214 208 194 181 183 179 180 186 182 177 168 176 200 198 231 271 266 251 173 181 253 245 225 254 261 260 260 249 239 247 241 230 237 237 238 241 236 235 232 235
185 184 182 182 182 182 180 180 176 171 168 167 173 188 190 182 152 144 150 73 197 194 352 169 188 195 112 51 174 159 158 168 182 191 163 159 166 166 158 164 177 178 177 196 218 195 200 225 214 198 177 179 185 182 182 190 197 189 157 174 207 174 166 253 267 237 194 188 210 229 231 259 271 275 264 243 233 248 250 238 238 234 232 237 237 235 229 230
186 185 183 181 179 178 177 174 171 173 174 176 184 189 182 177 151 144 145 48 145 180 209 204 189 186 149 100 185 178 175 178 175 181 169 163 159 157 163 173 175 173 181 194 207 217 223 225 176 165 177 181 180 181 183 190 209 209 189 189 196 179 186 215 232 173 355 301 250 287 298 274 257 263 262 248 225 243 250 246 249 244 236 241 243 240 233 231
187 186 184 180 178 176 171 167 170 177 178 183 191 184 172 173 162 152 133 59 180 248 203 202 339 188 159 124 168 166 124 254 234 169 173 173 162 154 175 178 169 176 185 189 199 227 237 188 144 172 183 176 179 184 187 189 196 215 213 200 182 182 198 192 156 107 34 306 271 194 278 275 253 256 261 262 234 247 251 243 249 249 243 242 244 243 239 236
185 185 183 180 176 170 165 166 177 177 175 191 195 181 172 173 167 157 113 59 245 254 170 171 155 180 173 150 145 117 113 253 273 158 175 182 174 164 177 170 170 186 181 182 195 226 233 181 170 178 173 178 191 194 194 186 186 218 204 187 181 175 183 168 145 139 166 254 277 166 213 270 296 271 260 260 249 256 259 244 246 249 246 240 238 241 238 235
182 183 183 180 173 167 164 168 174 173 174 196 191 179 171 170 170 162 106 51 236 154 148 165 163 173 175 163 146 138 188 183 112 160 183 186 180 166 191 176 170 187 171 164 204 209 183 184 179 169 172 186 196 202 200 186 189 228 170 166 183 170 164 165 151 177 219 257 300 194 182 273 281 256 254 253 250 265 266 253 250 246 241 241 239 239 235 233
183 182 181 179 175 172 169 157 163 173 184 178 174 169 163 165 166 140 116 201 197 123 142 170 164 158 155 148 151 167 243 142 144 189 188 189 186 127 199 190 180 179 166 164 205 207 182 187 180 172 179 192 201 202 191 180 199 250 153 162 182 160 144 140 137 176 317 9 269 220 144 275 266 251 265 255 236 253 257 252 255 251 242 239 239 240 237 233
182 180 181 179 178 176 170 163 170 179 174 162 160 161 154 151 146 88 176 206 115 96 158 158 153 140 139 149 164 185 237 115 165 179 172 191 201 161 199 199 190 183 175 182 201 197 180 197 187 177 184 200 203 193 171 177 202 230 147 135 120 105 90 86 112 116 56 289 242 207 161 237 264 237 220 236 218 235 250 249 247 248 248 244 242 244 243 239
182 179 180 178 174 171 166 173 181 172 159 158 157 153 144 136 128 138 209 208 94 131 168 161 170 155 152 160 174 191 194 157 118 130 157 184 200 216 306 209 190 186 186 199 210 202 119 189 180 184 202 203 190 172 174 181 171 125 117 99 73 47 43 53 74 77 85 257 238 192 170 199 266 247 197 215 214 214 232 247 249 250 255 254 247 247 246 243
181 179 180 177 175 173 166 173 175 162 156 156 152 144 132 118 140 187 199 188 76 156 156 166 167 153 159 168 172 187 193 179 136 157 168 176 191 200 210 169 187 191 194 199 210 217 173 109 156 206 215 160 132 153 184 170 149 128 116 115 114 61 23 31 36 94 219 252 233 177 162 177 237 249 214 244 250 230 227 238 249 249 250 252 252 253 248 243
181 180 181 180 178 177 177 172 162 157 154 152 147 138 128 138 185 195 184 79 81 180 161 162 165 160 169 175 176 179 183 186 172 169 173 183 200 194 189 189 179 188 203 192 194 205 205 179 176 193 191 148 153 162 74 77 171 158 134 142 153 171 195 204 205 194 219 257 292 160 154 182 237 251 257 261 260 246 233 232 240 246 253 263 263 260 255 251
182 181 181 181 180 179 182 170 158 155 152 148 144 134 156 181 188 188 180 152 221 211 159 162 172 173 172 175 183 180 181 187 176 172 182 190 204 203 201 199 187 194 208 187 188 190 201 208 181 165 155 172 172 166 157 166 193 189 172 169 172 172 193 207 206 216 228 250 327 152 162 233 270 271 236 243 252 248 241 241 242 242 249 259 266 268 270 272
182 181 181 182 183 182 178 167 161 157 151 146 143 150 173 197 181 181 192 193 246 228 165 165 167 173 177 182 183 171 178 195 177 172 181 189 205 209 207 206 199 204 187 179 197 184 191 208 182 175 171 171 182 188 183 171 179 195 185 178 186 181 194 202 197 212 222 225 176 183 193 202 213 247 226 229 253 265 262 258 255 252 249 250 264 271 270 273
181 181 181 181 182 180 174 169 162 157 151 145 153 169 183 194 174 184 194 187 201 189 170 166 161 169 185 192 187 177 188 197 174 176 184 188 201 203 203 208 203 204 175 176 209 186 201 222 179 180 174 170 186 197 180 161 178 200 165 180 205 191 174 180 191 201 181 136 206 201 234 217 208 277 279 255 264 266 257 260 264 265 262 252 257 260 257 261
176 176 178 178 180 177 172 170 163 157 154 152 167 180 196 191 180 186 177 168 181 158 152 171 169 169 185 191 188 191 203 196 166 180 195 195 209 204 200 205 199 201 190 180 197 181 206 236 177 178 176 182 190 187 171 167 174 183 172 193 201 144 131 132 233 107 95 191 226 200 253 277 305 285 275 262 270 270 253 245 248 255 258 251 248 250 253 254
169 170 174 177 179 176 171 169 164 159 157 164 181 188 193 196 189 170 165 165 165 147 151 181 180 169 179 186 189 188 191 183 172 186 188 187 212 209 205 220 204 201 195 186 218 197 185 226 185 181 186 194 192 177 176 180 152 160 185 185 146 80 96 102 163 25 76 222 243 214 232 245 262 260 258 232 249 262 257 235 242 259 257 248 250 247 247 248
161 163 169 174 176 174 171 168 164 161 162 172 191 193 186 198 188 147 156 153 153 160 171 188 183 179 183 182 189 185 180 182 183 187 187 184 195 186 191 219 223 202 196 183 203 273 177 242 215 195 195 192 176 165 179 194 33 163 183 167 143 183 209 159 179 192 169 221 259 234 231 226 205 225 236 208 222 243 254 253 255 259 250 241 247 250 251 252
147 153 171 173 172 172 172 168 163 163 173 177 192 196 181 193 184 173 177 155 154 173 184 188 177 187 195 186 181 180 184 190 181 182 193 189 195 187 183 189 190 193 195 185 188 240 202 198 220 212 197 173 160 176 187 191 278 345 150 168 173 196 196 188 195 188 177 211 248 249 234 233 221 208 202 219 225 227 243 252 246 244 241 235 234 242 252 252
142 148 184 169 169 169 167 166 164 172 180 186 193 184 154 173 173 190 197 157 155 178 185 189 179 178 195 192 183 179 188 196 187 188 198 181 187 202 190 186 179 175 186 193 196 192 164 198 199 210 182 174 180 193 187 180 178 169 173 185 197 203 185 198 207 183 152 197 231 255 252 252 244 193 190 212 227 230 234 242 240 238 239 237 234 235 244 250
133 123 206 169 166 165 162 163 181 181 178 196 191 171 147 170 159 166 176 98 110 114 157 172 178 182 188 187 185 181 184 197 194 193 201 186 191 211 198 188 181 167 172 191 201 190 168 185 180 180 203 192 194 199 194 187 181 181 188 189 191 192 174 185 210 193 110 196 191 210 258 262 232 182 193 203 212 226 233 235 235 238 239 237 237 233 231 236
129 139 174 162 162 163 160 166 186 168 184 193 175 153 157 165 149 154 150 88 99 19 94 116 140 191 192 188 184 177 174 191 197 194 201 201 202 207 190 185 185 176 170 181 195 185 148 149 178 201 226 213 221 223 204 194 190 189 195 189 190 191 179 189 209 199 188 211 175 159 266 276 204 176 195 202 209 224 227 216 220 234 239 238 241 240 235 234
113 134 94 145 162 165 161 166 155 150 197 173 137 134 147 153 147 147 150 143 151 246 112 120 138 196 199 191 179 175 175 186 197 197 200 205 213 213 183 178 183 182 176 180 185 171 109 149 181 193 260 307 322 323 360 194 197 202 273 191 185 192 195 199 199 180 192 208 195 204 256 264 237 191 206 206 209 224 218 198 211 230 240 243 242 238 229 229
91 103 70 124 158 160 155 179 154 142 160 140 136 143 124 117 160 154 156 166 171 166 135 132 164 196 198 188 182 181 178 182 197 200 198 202 221 228 181 182 184 179 186 189 172 172 179 174 165 161 177 289 333 286 340 41 190 193 205 203 192 194 197 196 109 157 208 212 200 205 241 250 265 3 251 222 213 227 233 213 212 222 231 232 233 234 229 231
105 84 81 105 126 127 128 203 150 137 143 139 143 147 129 113 169 168 153 156 178 174 146 132 137 136 153 126 184 192 186 177 185 190 189 196 227 263 185 190 191 185 194 190 165 169 193 176 164 182 189 190 196 202 198 187 180 179 191 197 197 194 191 190 197 196 208 213 202 202 231 249 331 97 190 208 209 225 241 235 222 226 230 220 214 223 226 228
127 100 129 124 79 50 80 198 119 130 144 141 137 150 150 139 150 176 147 145 223 174 116 115 127 101 87 134 146 191 193 185 142 178 187 190 211 262 177 186 199 203 197 179 164 157 177 187 190 209 220 211 200 216 206 174 176 184 191 196 199 198 194 194 200 203 210 215 209 213 227 235 218 182 201 199 208 221 226 214 211 223 228 218 213 220 220 223
109 104 132 131 130 128 104 111 126 126 145 147 133 148 150 137 140 160 147 191 222 173 93 80 138 143 167 158 146 181 184 178 178 180 184 186 191 239 121 149 201 206 182 168 171 154 136 200 196 208 232 238 207 349 257 174 185 193 193 195 200 199 196 198 207 211 211 217 225 226 228 231 229 226 243 238 219 218 215 203 200 205 207 205 203 210 219 232
91 77 108 109 113 135 127 141 149 136 140 142 96 124 142 140 143 150 144 154 187 182 89 60 184 183 169 155 139 155 163 164 189 180 172 175 167 150 132 131 211 196 163 174 199 162 137 207 196 199 226 235 234 305 237 191 204 209 201 196 196 194 192 200 211 215 208 211 228 225 219 228 233 224 235 235 210 203 213 208 202 201 194 194 190 193 212 224
96 86 21 26 79 124 123 124 133 133 137 130 89 123 143 143 144 147 132 129 160 215 111 120 197 199 170 153 122 125 171 165 194 206 181 176 172 152 151 190 221 192 174 190 216 175 160 200 187 191 224 234 232 240 220 199 215 225 220 209 200 195 195 200 208 215 212 214 233 234 224 234 234 216 219 225 202 188 204 174 189 216 202 198 200 205 216 219
108 133 92 57 77 94 93 102 125 131 127 102 95 125 141 144 152 155 116 129 156 191 66 121 170 170 165 175 143 153 197 179 162 210 200 182 184 171 169 189 171 167 186 196 204 203 209 191 165 172 220 235 227 227 228 215 213 216 216 216 210 205 207 210 212 216 215 218 235 238 234 241 238 217 214 216 186 194 223 191 200 217 210 203 205 213 219 218
360 230 129 99 92 65 69 92 119 123 107 75 120 150 152 160 166 150 117 124 150 156 144 146 155 146 155 196 196 191 196 177 167 189 185 174 193 182 155 180 149 154 186 197 176 183 199 172 143 152 198 231 218 218 224 223 224 224 215 208 207 207 212 216 216 215 208 210 226 233 233 241 239 197 180 185 182 211 227 218 212 216 210 207 209 215 219 221
350 321 55 96 98 44 78 99 81 112 142 160 148 150 156 172 170 140 111 9 108 149 155 153 153 145 150 192 212 205 183 166 166 176 157 131 108 50 85 91 79 107 157 177 161 158 154 145 136 151 195 231 212 208 217 217 222 231 214 202 202 204 209 214 218 220 213 206 214 222 228 238 222 145 176 190 187 207 220 217 217 218 209 210 220 224 223 223
Height
747 752 755 758 761 763 765 768 771 774 776 778 780 782 783 785 787 789 791 792 794 796 799 800 802 804 806 808 809 811 812 814 815 816 814 811 812 815 816 817 820 821 822 823 824 825 825 825 826 826 827 829 831 831 832 832 833 837 846 855 856 855 851 844 843 844 842 840 839 836 835 837 838 836 833 833 836 839 841 841 840 839 838 838 837 837 840 845
743 748 752 756 759 761 763 766 769 772 774 776 778 780 782 784 786 788 790 791 793 794 797 799 801 803 805 807 809 810 812 813 814 814 810 810 813 815 816 817 819 820 821 822 822 823 824 825 825 826 828 831 833 832 834 834 834 839 847 855 855 850 844 839 838 839 839 839 838 837 836 836 836 835 833 836 841 841 843 846 844 842 841 840 839 840 842 844
740 744 749 753 756 759 762 764 767 770 772 775 777 779 781 783 785 787 789 790 791 793 795 797 799 802 805 806 808 810 812 814 815 811 807 809 812 813 815 816 817 818 820 821 822 823 824 824 824 826 829 833 834 834 835 835 836 838 844 853 850 843 840 838 837 837 837 837 837 838 836 835 835 834 833 836 841 842 842 846 846 845 844 843 842 841 843 844
736 741 745 750 754 757 760 762 765 767 770 773 775 777 779 781 783 785 787 789 791 792 794 796 798 800 803 805 808 810 811 815 812 805 804 808 810 811 813 815 816 818 820 821 822 823 824 824 825 826 830 834 835 834 836 835 836 838 841 846 842 839 840 838 836 836 836 836 837 837 837 837 835 834 834 835 841 842 840 839 838 839 841 842 843 842 842 844
734 737 742 747 751 755 757 760 763 766 768 771 774 776 778 780 782 784 786 788 790 791 793 795 797 800 802 804 808 809 813 817 807 800 804 806 807 810 812 813 815 817 819 821 822 823 824 825 826 827 831 835 837 836 836 834 835 839 839 839 837 837 839 836 835 835 835 836 837 837 837 837 835 834 834 835 838 837 833 832 831 833 836 838 839 841 842 843
731 734 739 744 748 752 755 758 761 764 767 770 772 775 777 779 780 783 785 787 789 791 792 794 796 799 801 803 807 808 813 814 802 799 802 802 805 808 810 813 814 816 818 820 821 822 824 825 827 831 833 835 838 837 835 834 835 839 839 837 836 835 836 835 834 834 834 836 837 837 836 835 836 836 834 834 833 829 826 826 828 830 831 832 835 838 840 841
728 731 735 740 745 749 752 756 759 762 765 768 771 773 775 777 779 782 784 786 788 790 792 793 795 798 799 803 807 808 811 806 798 799 800 799 802 805 809 812 813 816 817 818 819 821 824 826 829 832 834 837 838 837 835 834 835 839 839 836 836 835 834 834 833 834 835 836 836 836 836 836 837 837 835 833 829 826 825 824 826 828 829 832 834 836 836 837
726 729 732 737 742 746 750 753 757 761 764 767 769 772 774 776 778 781 783 785 787 789 791 792 795 796 799 801 804 810 809 799 796 798 798 798 800 804 809 811 813 815 816 817 817 819 823 827 829 831 836 838 836 837 835 837 839 840 839 836 835 835 834 833 834 835 835 836 836 836 837 836 836 836 835 833 827 824 824 824 826 828 830 833 833 834 835 836
723 727 729 733 738 743 747 751 755 759 762 765 768 770 773 775 777 780 782 784 786 788 789 792 794 795 798 799 803 809 801 793 795 798 797 797 798 803 807 809 812 814 815 817 817 818 822 826 828 829 835 836 835 836 835 839 842 838 837 836 835 836 834 834 835 835 836 836 836 838 838 835 834 835 835 830 825 824 823 825 827 829 831 832 832 832 833 834
720 724 728 731 735 740 745 750 754 758 761 764 766 769 771 774 776 779 781 783 785 787 789 791 793 794 797 798 803 804 793 790 797 798 798 798 800 803 805 808 811 813 814 816 817 818 820 823 826 827 831 834 834 836 836 838 838 834 836 836 835 836 835 835 836 835 837 837 836 839 838 834 833 836 835 827 823 824 824 826 828 829 831 831 831 831 831 832
717 721 726 729 733 738 743 748 752 756 759 762 765 767 770 773 775 778 780 782 784 786 788 790 791 793 795 797 800 798 790 792 796 797 799 800 803 805 805 808 810 812 814 815 817 817 819 821 823 826 830 832 834 838 837 835 833 832 835 838 838 837 837 837 837 836 837 837 835 836 836 834 834 836 833 826 822 825 825 826 829 829 829 829 829 829 830 830
714 719 723 727 731 736 741 746 750 754 757 761 764 766 769 772 774 777 779 781 783 785 787 789 791 791 794 796 795 792 791 793 794 796 800 801 805 808 809 810 811 813 813 814 817 817 819 820 821 826 829 830 836 841 837 832 832 834 835 840 842 840 840 838 836 836 836 837 833 835 840 836 832 831 827 823 822 824 825 825 827 827 827 827 827 828 829 828
712 717 721 725 730 734 739 743 748 752 756 759 762 765 768 770 773 776 778 781 783 785 787 789 790 790 794 795 792 791 793 793 794 796 799 802 805 809 811 812 813 815 815 815 817 817 819 820 820 825 827 829 836 838 834 832 834 837 837 840 845 848 845 837 837 837 836 837 831 837 849 838 828 826 822 821 821 823 825 825 825 826 825 825 826 827 827 827
709 714 719 723 727 732 736 741 745 750 754 758 761 764 767 769 773 775 777 780 782 784 787 789 789 791 795 794 790 792 793 794 796 796 798 801 804 809 812 813 814 816 817 818 819 820 821 821 822 825 827 829 833 833 836 838 838 840 842 842 846 853 848 836 836 838 838 837 829 839 853 837 825 824 819 818 820 822 824 823 824 824 824 824 824 825 825 825
707 711 716 721 725 729 734 738 743 748 752 756 760 763 766 769 772 774 777 780 782 784 786 788 789 792 796 794 790 792 794 795 796 796 798 799 801 807 811 813 815 817 819 819 820 822 823 822 823 827 830 830 831 836 842 844 841 841 847 850 849 851 848 837 836 837 837 837 831 840 850 835 824 821 816 816 817 820 822 821 822 823 823 823 822 822 822 822
704 709 714 718 723 727 731 736 741 746 751 755 759 762 765 769 771 774 777 779 782 784 785 788 789 791 795 792 789 791 793 793 794 795 797 798 799 803 809 814 816 818 820 821 822 823 823 823 825 828 831 832 834 839 845 850 848 843 846 853 851 850 851 844 837 834 832 836 835 838 842 832 823 818 815 816 816 818 821 819 820 821 820 821 821 820 820 820
702 707 712 716 720 725 729 734 739 744 749 754 758 762 765 769 771 774 777 779 781 783 785 787 788 792 793 790 789 789 790 791 792 793 795 797 799 801 806 813 818 820 821 823 824 824 824 825 828 829 832 834 836 839 848 855 853 847 846 849 849 848 852 850 841 833 832 837 838 838 838 828 819 817 816 816 816 817 819 818 818 818 818 818 818 818 818 818
700 705 709 714 718 723 728 732 738 743 748 753 757 761 765 768 771 774 776 778 780 784 787 787 790 795 792 785 786 786 785 787 788 791 794 796 798 800 803 811 819 821 823 826 826 826 828 828 830 833 835 837 836 836 844 846 844 847 848 848 849 847 848 850 843 834 833 839 840 842 841 827 817 819 817 815 816 817 817 817 816 815 816 816 817 817 816 815
698 703 707 711 716 721 726 731 736 741 746 752 756 761 765 768 771 774 775 777 780 783 785 784 785 787 782 777 780 782 782 784 787 790 793 795 798 801 804 809 817 822 827 830 829 827 829 832 834 835 835 834 832 831 833 832 834 840 843 843 845 846 846 845 841 834 833 839 841 842 840 827 820 822 818 815 816 816 815 814 815 814 814 815 816 815 814 813
697 701 705 709 714 719 724 730 735 740 744 750 753 758 763 767 772 775 775 775 775 774 775 774 774 774 774 773 777 780 782 785 787 789 791 794 796 802 807 809 816 825 830 831 830 826 827 833 834 829 826 826 826 827 827 827 830 833 837 840 842 844 843 840 837 833 831 838 839 837 837 828 821 821 817 815 817 815 814 813 813 813 812 813 813 812 811 809
696 701 704 708 712 717 723 728 734 739 743 747 749 754 757 759 764 766 768 772 771 769 771 771 771 773 774 774 775 777 782 787 789 789 792 795 795 802 810 812 818 827 829 829 829 828 829 831 827 819 817 819 822 824 824 826 830 832 836 840 843 845 842 836 834 832 832 839 837 834 838 831 820 819 817 817 818 814 811 812 811 810 810 810 809 808 806 805
696 701 704 708 712 717 722 728 733 738 742 746 748 750 751 752 753 754 759 769 771 770 772 771 772 776 776 776 776 776 781 787 790 791 791 795 796 801 808 813 818 822 825 829 830 830 832 827 816 813 814 817 821 822 824 827 830 832 836 840 843 843 842 838 833 831 833 838 837 835 839 833 821 818 818 817 815 810 807 808 807 806 807 806 804 803 803 803
695 700 704 707 712 717 722 727 732 737 741 743 745 747 748 750 753 752 757 767 772 773 773 774 774 776 778 778 777 777 780 783 787 789 789 792 796 799 805 811 814 818 824 830 830 829 828 817 809 813 817 820 824 824 826 829 830 832 835 840 841 838 840 840 835 833 834 836 837 837 839 834 823 819 817 813 812 807 804 803 801 801 801 799 798 798 798 798
693 698 703 706 711 717 722 727 732 736 738 739 742 744 747 751 754 755 758 766 773 773 772 773 774 775 778 778 777 778 781 781 782 786 787 789 794 798 801 805 809 817 822 824 827 826 818 807 807 816 820 821 826 828 828 832 834 832 832 836 836 834 835 836 834 833 835 836 835 838 841 832 821 819 812 806 808 807 802 801 800 798 796 794 794 793 792 791
692 697 701 705 711 715 721 727 730 733 735 738 740 743 748 751 754 755 758 768 775 775 774 774 774 774 775 777 778 779 782 782 781 783 785 786 789 795 799 800 805 815 818 818 825 825 815 808 808 816 820 822 826 827 826 828 834 835 830 828 829 829 830 832 834 836 840 842 834 838 847 833 817 817 811 805 809 806 801 802 799 794 792 792 792 789 787 786
690 695 699 704 708 713 720 724 727 731 735 737 738 743 748 751 756 756 759 775 778 773 775 774 774 772 770 775 778 780 786 785 781 781 784 785 786 789 797 799 801 807 809 814 822 819 813 809 808 814 820 822 825 825 821 822 833 835 823 820 824 824 828 832 834 837 844 845 836 837 847 837 821 815 808 806 809 804 800 800 796 791 790 788 786 783 782 782
688 692 697 702 705 709 715 718 723 729 731 733 735 742 748 750 757 755 763 787 783 768 771 774 771 768 766 772 775 779 786 782 780 782 781 784 786 788 795 797 798 801 802 812 820 810 806 809 811 815 819 822 825 823 817 817 829 828 815 816 823 823 829 832 834 838 840 841 839 838 843 844 832 815 804 802 805 803 798 795 790 788 787 783 780 777 776 776
686 691 695 700 703 706 710 714 721 724 725 729 733 742 747 750 758 757 771 791 775 757 765 769 767 765 764 770 772 774 777 774 778 782 778 782 785 789 795 793 793 796 796 807 813 801 797 806 808 809 815 819 815 810 810 814 823 822 814 816 821 823 828 831 835 840 841 844 843 838 842 846 831 812 806 806 804 800 794 788 785 782 780 778 775 772 770 770
684 689 694 698 703 707 711 715 718 721 725 729 735 743 747 751 759 766 779 782 757 747 757 759 763 767 768 772 773 772 772 773 777 778 779 783 784 785 790 788 788 793 793 796 797 794 795 797 797 801 807 806 800 799 804 811 817 818 815 817 821 826 830 835 839 840 845 849 842 836 840 842 823 803 804 808 804 798 789 784 780 774 772 772 770 768 767 767
683 687 693 697 702 706 712 715 718 721 725 730 736 742 747 753 762 775 782 769 747 748 755 754 757 763 768 772 774 772 772 773 777 778 780 783 784 785 785 784 786 792 796 795 793 792 793 792 794 799 799 796 797 802 801 803 810 815 817 822 829 834 835 839 842 842 849 846 832 827 832 838 826 803 797 798 792 787 783 779 776 771 770 768 766 766 764 764
682 686 691 695 699 703 708 713 717 721 724 729 736 742 750 757 767 778 775 755 744 750 756 755 755 758 763 767 770 772 773 775 776 778 781 782 783 786 786 786 789 792 796 797 796 795 795 798 799 796 794 793 800 806 806 805 808 812 818 825 835 842 842 845 847 850 852 837 821 819 825 837 829 803 792 790 782 781 780 775 771 768 767 765 764 763 762 762
681 685 689 693 697 701 705 709 714 719 724 729 734 741 751 761 767 768 761 750 747 749 751 754 755 756 760 762 764 768 770 773 775 775 777 779 779 779 779 782 785 790 793 793 796 798 797 798 795 794 795 794 798 808 816 819 815 815 821 827 838 848 848 848 847 846 841 829 823 824 825 830 815 790 786 786 778 776 775 771 768 765 764 763 762 761 760 760
680 684 688 692 696 700 704 709 714 719 724 729 736 742 750 759 758 750 747 749 746 743 743 746 750 753 756 760 763 765 768 769 771 773 774 775 777 774 773 774 775 778 783 787 792 797 799 797 794 797 799 794 795 807 817 822 823 822 821 824 832 842 846 845 842 838 833 827 828 829 826 822 804 783 778 775 767 766 766 766 766 765 765 761 759 759 759 759
679 683 687 691 696 700 705 710 713 716 722 728 737 745 751 753 746 739 743 747 745 741 738 739 746 752 755 756 756 760 766 767 767 771 773 774 776 775 772 772 773 773 780 786 787 788 792 791 788 789 790 789 790 793 794 801 811 812 806 809 816 822 827 832 831 829 829 828 829 831 825 813 797 782 774 769 765 764 763 764 764 765 764 761 759 759 758 757
678 682 687 691 696 700 705 709 711 715 721 728 736 743 746 743 734 734 740 742 743 743 739 738 744 754 757 755 754 754 757 761 764 769 773 771 769 770 768 769 771 771 779 787 784 781 782 776 772 772 772 777 782 781 781 793 808 807 801 806 809 805 806 816 822 819 821 827 829 826 815 798 786 777 771 769 768 764 763 763 763 762 761 761 760 756 755 754
678 682 686 690 694 698 702 706 710 713 718 726 735 737 735 729 722 724 727 730 736 738 740 744 745 752 758 757 758 758 754 756 762 766 771 771 766 764 762 761 763 765 770 776 777 779 781 774 768 769 771 770 771 773 777 787 797 802 804 805 802 797 797 809 821 820 820 826 823 816 807 795 788 778 766 764 762 755 755 758 759 756 756 758 756 752 751 750
675 679 683 686 690 694 699 703 708 712 716 724 729 726 723 720 717 717 717 721 728 730 735 743 741 744 752 754 756 758 756 759 763 764 768 771 766 761 762 760 758 760 762 766 768 769 772 773 769 769 771 766 761 767 774 775 780 793 801 797 795 802 801 802 815 823 827 828 818 809 803 797 796 785 767 764 763 752 748 752 754 751 751 752 749 748 748 747
672 677 681 683 687 692 697 702 707 712 716 721 723 718 717 718 717 717 716 718 724 727 731 737 737 737 743 747 750 752 753 757 761 762 763 766 760 754 760 762 758 758 758 762 770 767 765 772 773 769 768 766 765 773 782 782 781 785 787 783 788 804 806 801 808 816 823 822 809 801 801 796 790 777 761 757 759 753 749 750 751 749 747 746 744 743 743 744
672 678 682 683 686 691 696 701 705 710 715 718 717 716 716 717 716 717 715 715 719 724 727 729 732 735 737 738 741 746 749 748 752 757 756 757 754 746 748 753 755 757 756 758 767 767 764 771 774 770 768 770 771 776 783 787 786 784 784 784 784 790 794 793 792 795 803 808 799 795 798 787 772 762 754 749 747 748 748 746 745 744 743 742 742 740 740 741
670 676 681 681 685 691 696 702 706 707 710 710 709 711 714 714 715 716 715 715 719 723 723 722 727 732 733 732 733 739 743 741 743 749 748 747 749 745 742 744 748 752 754 757 762 763 765 770 772 773 774 772 770 768 767 772 779 781 784 788 784 784 789 789 785 784 789 797 796 794 788 768 753 753 750 745 743 742 741 740 739 739 739 739 740 739 739 740
668 674 680 679 683 690 695 701 704 703 706 706 705 710 715 712 712 716 717 718 723 725 723 721 724 727 726 728 730 733 739 740 741 744 744 742 742 742 739 738 740 744 750 757 759 760 765 768 770 775 774 766 760 754 750 753 759 762 766 771 771 775 784 790 792 788 784 786 787 789 780 752 738 745 743 738 738 733 731 733 735 737 736 735 737 738 738 738
666 673 678 677 681 687 691 697 700 700 703 702 700 706 710 709 711 716 718 720 725 727 725 724 725 725 722 722 724 728 734 737 738 739 739 737 734 733 733 734 735 736 740 747 751 752 756 760 766 771 769 764 760 754 751 751 752 755 761 761 762 769 775 783 789 786 783 781 778 786 782 748 729 736 736 732 732 728 728 733 734 734 733 732 734 736 737 737
668 673 676 677 680 684 689 696 699 700 702 699 697 701 705 708 712 714 716 720 723 725 724 724 726 725 721 720 720 723 729 732 733 733 732 733 730 726 728 731 733 735 737 741 746 750 753 758 765 769 768 767 765 760 757 756 756 762 766 762 762 765 765 768 772 772 777 778 775 787 785 748 727 733 733 729 730 730 731 734 733 732 731 732 733 732 733 734
671 674 677 679 681 683 687 691 692 696 703 701 700 704 707 710 713 711 713 717 719 720 720 723 727 726 724 723 719 718 721 725 728 729 728 730 729 724 726 728 729 732 734 735 738 744 750 755 760 765 767 769 770 766 763 763 763 763 764 762 761 761 763 766 768 770 774 771 769 782 776 743 727 733 733 731 733 733 733 733 733 731 729 730 731 731 732 733
670 677 682 683 684 685 687 688 685 689 698 700 700 704 707 711 713 710 710 713 715 715 715 719 725 727 727 725 722 718 717 718 723 726 727 728 727 725 726 726 725 726 727 727 730 737 744 748 751 753 753 753 754 751 748 751 756 758 758 759 757 755 758 761 764 770 771 761 761 768 757 737 731 732 731 731 732 732 731 732 733 732 729 729 730 730 731 732
665 673 682 685 687 688 689 690 686 685 690 693 698 702 704 708 712 710 709 713 716 714 712 716 723 728 729 725 723 722 720 719 721 723 724 726 726 724 724 725 724 723 723 726 729 737 744 745 746 747 740 734 735 735 729 732 743 748 748 748 747 744 745 748 756 762 756 751 755 752 740 735 736 732 729 730 730 729 729 730 731 730 728 729 729 729 730 732
663 668 674 678 684 687 688 690 689 687 687 688 693 698 700 703 709 711 711 712 713 711 712 716 719 722 725 724 722 723 722 722 722 720 720 723 724 724 724 724 724 722 724 728 729 732 740 741 742 748 743 734 736 739 732 730 735 735 735 739 741 741 744 749 752 748 744 751 755 743 735 739 736 730 729 727 726 727 726 725 723 722 724 726 728 729 730 731
664 668 670 670 675 681 684 687 688 688 689 688 690 695 698 700 704 707 709 710 710 708 708 715 718 716 718 719 718 722 725 724 723 721 720 722 723 724 725 724 723 723 726 730 728 727 734 736 737 744 745 738 739 742 738 734 733 728 726 731 734 738 743 745 742 735 737 747 744 731 732 737 733 730 727 719 718 721 719 719 719 721 724 726 726 727 726 727
664 668 670 669 672 677 680 683 685 687 690 689 691 695 697 699 702 702 704 707 710 707 705 711 716 716 717 716 712 718 724 723 723 724 722 720 719 722 725 725 724 725 727 729 727 724 726 729 734 743 747 741 739 742 742 739 737 732 730 730 730 734 734 732 731 727 729 735 730 725 732 732 722 722 719 711 713 718 718 721 723 723 725 726 726 725 723 724
664 667 669 670 674 678 680 683 683 685 689 688 690 696 696 697 700 702 702 704 706 709 706 707 712 715 718 717 711 713 719 719 720 722 721 719 716 716 719 719 720 725 726 725 727 724 721 725 733 742 747 743 738 739 741 740 738 733 731 730 732 736 736 732 729 726 730 735 728 726 733 725 708 706 711 712 715 718 718 720 721 721 722 724 723 720 719 720
667 668 667 669 677 681 682 684 683 683 687 687 689 695 695 695 697 698 701 702 701 704 704 704 709 714 716 716 711 710 714 715 715 716 717 720 719 716 716 716 719 723 723 722 725 724 723 728 736 742 744 739 736 738 738 738 739 735 730 730 733 737 737 732 726 721 724 728 725 727 729 715 699 701 709 712 714 714 714 716 718 719 719 719 717 715 716 718
669 669 667 668 678 684 683 683 683 683 687 688 689 691 693 695 696 694 698 703 701 698 699 700 704 710 714 715 710 706 710 711 711 712 714 718 721 721 720 720 721 723 723 724 726 726 727 731 736 740 737 729 730 736 736 737 738 732 725 721 722 724 725 723 720 714 712 714 719 720 711 698 697 704 708 710 712 710 708 708 710 713 716 717 715 713 714 714